AP989 Weather Reports


time (UTC)temp
F
wind
direction
speed
knots
gust
knots
rain 1hr
in
rain 24hr
in
rain mn
in
humidity
%
barometer
mb
20260503224004 64 259 7.8 13.0 0.00 0.00 0.00 28 1002.4
20260503223003 64 286 6.1 17.4 0.00 0.00 0.00 28 1002.4
20260503222004 64 264 5.2 15.6 0.00 0.00 0.00 29 1002.4
20260503221003 64 279 9.6 15.6 0.00 0.00 0.00 27 1002.4
20260503220004 64 268 9.6 18.2 0.00 0.00 0.00 26 1002.4
20260503215004 64 280 13.0 19.1 0.00 0.00 0.00 25 1002.4
20260503214004 64 279 13.0 20.0 0.00 0.00 0.00 30 1002.4
20260503213003 65 255 13.9 19.1 0.00 0.00 0.00 27 1002.4
20260503212007 65 284 8.7 20.9 0.00 0.00 0.00 28 1002.4
20260503210004 65 285 7.8 17.4 0.00 0.00 0.00 27 1002.4
20260503205003 65 277 12.2 18.2 0.00 0.00 0.00 28 1002.4
20260503204004 65 250 13.0 20.0 0.00 0.00 0.00 31 1003.0
20260503203004 66 294 10.4 17.4 0.00 0.00 0.00 30 1003.0
20260503202003 65 257 7.8 19.1 0.00 0.00 0.00 33 1003.0
20260503201004 65 265 18.2 22.6 0.00 0.00 0.00 34 1003.0
20260503200004 67 268 11.3 18.2 0.00 0.00 0.00 34 1003.0
20260503195004 66 291 11.3 20.9 0.00 0.00 0.00 32 1003.0
20260503194004 66 261 12.2 20.0 0.00 0.00 0.00 35 1003.0
20260503193004 65 278 10.4 20.9 0.00 0.00 0.00 36 1003.0
20260503191004 65 272 12.2 18.2 0.00 0.00 0.00 39 1003.0
20260503190004 64 293 8.7 17.4 0.00 0.00 0.00 36 1003.9
20260503185004 65 255 6.1 17.4 0.00 0.00 0.00 42 1003.9
20260503184004 65 307 8.7 20.0 0.00 0.00 0.00 37 1003.9
20260503183004 65 267 5.2 14.8 0.00 0.00 0.00 38 1003.9
20260503182005 64 269 10.4 15.6 0.00 0.00 0.00 40 1003.9
20260503180004 64 263 10.4 17.4 0.00 0.00 0.00 40 1003.9
20260503175004 63 276 12.2 19.1 0.00 0.00 0.00 43 1003.9
20260503174004 64 274 7.8 15.6 0.00 0.00 0.00 44 1003.9
20260503173004 63 303 11.3 17.4 0.00 0.00 0.00 43 1003.9
20260503172004 63 315 7.8 20.9 0.00 0.00 0.00 47 1003.9
20260503171004 63 293 7.8 17.4 0.00 0.00 0.00 44 1003.9
20260503151004 58 274 8.7 13.0 0.00 0.00 0.00 57 1004.4
20260503072004 48 201 4.3 6.1 0.00 0.00 0.00 80 1007.5
20260503071004 48 219 4.3 7.0 0.00 0.00 0.00 84 1007.5
20260503055004 52 251 5.2 10.4 0.00 0.00 0.00 69 1008.1
20260503054004 51 236 6.1 7.8 0.00 0.00 0.00 70 1008.1
20260503052004 53 249 5.2 7.8 0.00 0.00 0.00 67 1008.1
20260503051005 53 240 4.3 7.8 0.00 0.00 0.00 67 1008.1
20260503050004 54 231 6.1 10.4 0.00 0.00 0.00 64 1008.1
20260503044004 54 233 7.8 14.8 0.00 0.00 0.00 64 1008.1
20260503042004 53 215 7.8 11.3 0.00 0.00 0.00 60 1008.1
20260503041004 52 208 6.1 10.4 0.00 0.00 0.00 61 1008.1
20260503040004 50 218 6.1 13.9 0.00 0.00 0.00 62 1008.1
20260503034004 50 212 6.1 8.7 0.00 0.00 0.00 63 1009.0
20260503033004 50 227 6.1 8.7 0.00 0.00 0.00 60 1009.0
20260503032004 52 230 4.3 8.7 0.00 0.00 0.00 59 1009.0
20260503030004 51 188 4.3 6.1 0.00 0.00 0.00 54 1009.0
20260503025004 50 196 4.3 7.8 0.00 0.00 0.00 55 1009.0
20260503023004 51 175 4.3 6.1 0.00 0.00 0.00 53 1009.0
20260503022004 51 172 4.3 7.0 0.00 0.00 0.00 53 1009.0
20260503021004 51 181 4.3 6.1 0.00 0.00 0.00 52 1009.0
20260503020004 52 163 5.2 7.0 0.00 0.00 0.00 51 1009.1
20260503015004 52 177 4.3 7.0 0.00 0.00 0.00 50 1009.1
20260503013004 53 168 4.3 7.0 0.00 0.00 0.00 49 1009.1
20260503012004 54 183 4.3 7.0 0.00 0.00 0.00 49 1009.1
20260503005003 55 208 5.2 10.4 0.00 0.00 0.00 47 1009.3
20260503004003 56 224 5.2 10.4 0.00 0.00 0.00 46 1009.3
20260503003003 56 191 4.3 11.3 0.00 0.00 0.00 48 1009.8
20260503002003 56 205 3.5 11.3 0.00 0.00 0.00 50 1009.8
20260503001003 56 213 4.3 10.4 0.00 0.00 0.00 48 1009.8
20260503000003 57 237 4.3 8.7 0.00 0.00 0.00 50 1009.8
20260502235003 57 229 10.4 13.9 0.00 0.00 0.00 48 1010.7
20260502234003 57 242 8.7 15.6 0.00 0.00 0.00 47 1010.7
20260502233003 57 224 13.9 18.2 0.00 0.00 0.00 47 1010.7
20260502231003 58 214 9.6 15.6 0.00 0.00 0.00 46 1010.7
20260502230003 59 225 10.4 15.6 0.00 0.00 0.00 42 1010.7
20260502225003 58 227 8.7 17.4 0.00 0.00 0.00 45 1010.7